Terug naar catalogus

STARLINK-30899

ActiefCommunicatieVLEO
NORAD 58420·PAYLOAD·🇺🇸 United States

Gelanceerd Nov 22, 2023 vanaf Cape Canaveral Space Force Station

Loading…

Volgende Passages (komende 24 uur)

TLE

VersSource: CelesTrak SupGP

Epoch: Sep 15, 2026, 02:55 UTC

1 58420C 23180U   26258.12201389 -.00065298  00000+0 -23643-2 0  2581
2 58420  43.0002  62.4242 0001697 265.3688 353.7773 15.27621458    18

Volg STARLINK-30899 in realtime met AllMySat

Download on the App Store